CW1238 Weather Reports


time (UTC)temp
C
wind
direction
speed
KPH
gust
KPH
rain 1hr
cm
rain 24hr
cm
rain mn
cm
humidity
%
barometer
mb
20260504050328 10 171 0.0 0.0 0.00 0.00 0.00 59 1042.6
20260504045826 10 190 0.0 0.0 0.00 0.00 0.00 59 1042.5
20260504045320 10 186 0.0 0.0 0.00 0.00 0.00 58 1042.5
20260504044818 10 177 0.0 0.0 0.00 0.00 0.00 58 1042.7
20260504044315 11 180 0.0 0.0 0.00 0.00 0.00 57 1042.8
20260504043812 10 167 0.0 0.0 0.00 0.00 0.00 57 1042.8
20260504043309 10 177 0.0 0.0 0.00 0.00 0.00 59 1042.7
20260504042807 10 177 0.0 0.0 0.00 0.00 0.00 60 1042.8
20260504042304 10 175 0.0 0.0 0.00 0.00 0.00 60 1042.9
20260504041759 10 182 0.0 0.0 0.00 0.00 0.00 62 1042.9
20260504041255 10 181 0.0 0.0 0.00 0.00 0.00 62 1043.0
20260504040752 10 182 0.0 0.0 0.00 0.00 0.00 62 1043.3
20260504040249 10 181 0.0 0.0 0.00 0.00 0.00 58 1043.6
20260504035745 11 172 0.0 0.0 0.00 0.00 0.00 56 1043.4
20260504035242 11 184 0.0 0.0 0.00 0.00 0.00 56 1043.6
20260504034740 11 174 0.0 0.0 0.00 0.00 0.00 56 1043.8
20260504034237 10 175 0.0 0.0 0.00 0.00 0.00 59 1043.6
20260504033734 10 175 0.0 0.0 0.00 0.00 0.00 59 1043.7
20260504033232 11 175 0.0 0.0 0.00 0.00 0.00 56 1043.8
20260504032728 11 175 0.0 0.0 0.00 0.00 0.00 53 1043.6
20260504032226 11 181 0.0 0.0 0.00 0.00 0.00 52 1043.8
20260504031722 12 184 0.0 0.0 0.00 0.00 0.00 52 1044.1
20260504031220 11 183 0.0 0.0 0.00 0.00 0.00 52 1043.9
20260504030715 12 175 0.0 0.0 0.00 0.00 0.00 51 1043.8
20260504030213 12 178 0.0 0.0 0.00 0.00 0.00 51 1044.0
20260504025709 11 176 0.0 0.0 0.00 0.00 0.00 53 1044.0
20260504025206 12 177 0.0 0.0 0.00 0.00 0.00 52 1044.0
20260504024703 12 177 0.0 0.0 0.00 0.00 0.00 51 1043.7
20260504024200 13 177 0.0 0.0 0.00 0.00 0.00 51 1043.8
20260504023656 12 180 0.0 0.0 0.00 0.00 0.00 49 1043.9
20260504023152 13 175 0.0 0.0 0.00 0.00 0.00 46 1044.0
20260504022649 14 175 0.0 0.0 0.00 0.00 0.00 45 1043.9
20260504022144 14 164 0.0 0.0 0.00 0.00 0.00 44 1043.8
20260504021643 15 174 0.0 1.6 0.00 0.00 0.00 44 1043.9
20260504021139 15 172 0.0 1.6 0.00 0.00 0.00 42 1043.8
20260504020636 15 169 1.6 1.6 0.00 0.00 0.00 41 1043.8
20260504020132 15 178 0.0 0.0 0.00 0.00 0.00 42 1043.9
20260504015629 15 175 0.0 0.0 0.00 0.00 0.00 40 1044.0
20260504015125 16 182 0.0 0.0 0.00 0.00 0.00 38 1043.8
20260504014621 16 185 0.0 1.6 0.00 0.00 0.00 37 1043.8
20260504014119 16 218 1.6 1.6 0.00 0.00 0.00 38 1043.9
20260504013616 17 180 0.0 1.6 0.00 0.00 0.00 36 1043.9
20260504013113 17 189 0.0 1.6 0.00 0.00 0.00 37 1043.9
20260504012610 17 196 1.6 3.2 0.00 0.00 0.00 35 1043.9
20260504012108 17 205 1.6 3.2 0.00 0.00 0.00 35 1043.8
20260504011605 18 268 1.6 3.2 0.00 0.00 0.00 34 1043.8
20260504011101 18 201 3.2 4.8 0.00 0.00 0.00 34 1043.8
20260504010556 18 258 1.6 4.8 0.00 0.00 0.00 33 1043.8
20260504010053 18 223 3.2 4.8 0.00 0.00 0.00 33 1043.8
20260504005549 18 222 3.2 4.8 0.00 0.00 0.00 32 1043.7
20260504005047 19 254 3.2 6.4 0.00 0.00 0.00 33 1043.8
20260504004545 19 273 3.2 9.7 0.00 0.00 0.00 31 1043.8
20260504004042 20 268 4.8 6.4 0.00 0.00 0.00 32 1043.8
20260504003537 20 259 3.2 3.2 0.00 0.00 0.00 31 1044.0
20260504003034 20 240 3.2 6.4 0.00 0.00 0.00 31 1043.9
20260504002531 20 253 3.2 6.4 0.00 0.00 0.00 31 1043.9
20260504002029 20 278 8.0 12.9 0.00 0.00 0.00 30 1043.9
20260504001527 20 285 6.4 9.7 0.00 0.00 0.00 32 1043.9
20260504001022 20 288 6.4 9.7 0.00 0.00 0.00 32 1043.9
20260504000520 20 256 4.8 6.4 0.00 0.00 0.00 31 1044.0
20260504000017 20 259 1.6 11.3 0.00 0.00 0.00 32 1043.9
20260503235515 21 218 4.8 9.7 0.00 0.00 0.00 30 1043.9
20260503235012 21 313 6.4 11.3 0.00 0.00 0.00 30 1043.8
20260503234509 21 345 3.2 6.4 0.00 0.00 0.00 32 1043.9
20260503234008 21 284 8.0 12.9 0.00 0.00 0.00 31 1043.9
20260503233504 21 349 1.6 4.8 0.00 0.00 0.00 31 1043.8
20260503233000 21 253 3.2 4.8 0.00 0.00 0.00 31 1043.5
20260503232457 21 261 4.8 6.4 0.00 0.00 0.00 32 1043.7
20260503231954 21 266 6.4 6.4 0.00 0.00 0.00 30 1043.8
20260503231452 21 254 8.0 11.3 0.00 0.00 0.00 30 1043.8
20260503230948 21 253 8.0 11.3 0.00 0.00 0.00 31 1043.9
20260503230445 21 292 6.4 16.1 0.00 0.00 0.00 29 1043.8
20260503225943 21 271 3.2 4.8 0.00 0.00 0.00 31 1043.7
20260503225439 22 301 6.4 9.7 0.00 0.00 0.00 29 1043.7
20260503224935 22 224 3.2 9.7 0.00 0.00 0.00 29 1043.6
20260503224432 21 313 8.0 14.5 0.00 0.00 0.00 27 1043.7
20260503223930 22 282 11.3 16.1 0.00 0.00 0.00 27 1043.8
20260503223428 22 264 6.4 9.7 0.00 0.00 0.00 27 1043.5
20260503222922 22 270 3.2 6.4 0.00 0.00 0.00 28 1043.6
20260503222422 22 313 4.8 11.3 0.00 0.00 0.00 27 1043.6
20260503221920 22 25 3.2 12.9 0.00 0.00 0.00 30 1043.6
20260503221417 22 324 6.4 14.5 0.00 0.00 0.00 28 1043.5
20260503220914 22 203 3.2 9.7 0.00 0.00 0.00 29 1043.7
20260503220410 22 316 4.8 9.7 0.00 0.00 0.00 29 1043.7
20260503215908 22 274 8.0 11.3 0.00 0.00 0.00 27 1043.6
20260503215404 22 327 6.4 14.5 0.00 0.00 0.00 30 1043.7
20260503214902 22 296 6.4 12.9 0.00 0.00 0.00 27 1043.6
20260503214359 21 290 4.8 12.9 0.00 0.00 0.00 28 1043.8
20260503213856 22 304 6.4 11.3 0.00 0.00 0.00 27 1043.9
20260503213354 22 316 6.4 16.1 0.00 0.00 0.00 28 1043.9
20260503212850 22 335 6.4 11.3 0.00 0.00 0.00 29 1043.9
20260503212349 22 309 6.4 11.3 0.00 0.00 0.00 28 1044.0
20260503211845 22 45 6.4 9.7 0.00 0.00 0.00 30 1043.9
20260503211342 22 287 9.7 16.1 0.00 0.00 0.00 30 1044.0
20260503210837 22 287 4.8 16.1 0.00 0.00 0.00 29 1043.9
20260503210335 22 213 3.2 4.8 0.00 0.00 0.00 30 1044.0
20260503205830 22 123 4.8 11.3 0.00 0.00 0.00 29 1043.7
20260503205327 22 267 8.0 14.5 0.00 0.00 0.00 28 1044.0
20260503204823 22 294 3.2 4.8 0.00 0.00 0.00 32 1044.0
20260503204321 22 206 4.8 9.7 0.00 0.00 0.00 30 1044.0
20260503203818 22 2 9.7 12.9 0.00 0.00 0.00 32 1044.1
20260503203315 22 315 4.8 6.4 0.00 0.00 0.00 32 1044.0
20260503202812 22 297 12.9 16.1 0.00 0.00 0.00 31 1043.9
20260503202310 22 358 3.2 11.3 0.00 0.00 0.00 32 1044.1
20260503201808 22 322 8.0 16.1 0.00 0.00 0.00 30 1044.3
20260503201305 22 269 12.9 14.5 0.00 0.00 0.00 28 1044.2
20260503200802 21 309 4.8 17.7 0.00 0.00 0.00 34 1044.2
20260503200258 21 300 12.9 17.7 0.00 0.00 0.00 34 1044.2
20260503195755 21 281 8.0 14.5 0.00 0.00 0.00 32 1044.2
20260503195252 22 284 8.0 16.1 0.00 0.00 0.00 31 1044.3
20260503194749 22 20 3.2 6.4 0.00 0.00 0.00 32 1044.3
20260503194245 22 27 4.8 6.4 0.00 0.00 0.00 31 1044.4
20260503193741 21 85 1.6 6.4 0.00 0.00 0.00 30 1044.4
20260503193237 22 330 4.8 14.5 0.00 0.00 0.00 31 1044.5
20260503192733 22 32 3.2 9.7 0.00 0.00 0.00 29 1044.4
20260503192228 21 294 1.6 4.8 0.00 0.00 0.00 32 1044.4
20260503191726 22 353 12.9 16.1 0.00 0.00 0.00 28 1044.5
20260503191222 22 324 4.8 9.7 0.00 0.00 0.00 30 1044.6
20260503190720 21 345 4.8 9.7 0.00 0.00 0.00 30 1044.6
20260503190216 21 25 6.4 12.9 0.00 0.00 0.00 31 1044.6
20260503185714 21 195 4.8 11.3 0.00 0.00 0.00 33 1044.6
20260503185209 21 320 6.4 12.9 0.00 0.00 0.00 33 1044.3
20260503184703 21 343 6.4 11.3 0.00 0.00 0.00 35 1044.4
20260503184200 21 18 6.4 11.3 0.00 0.00 0.00 35 1044.4
20260503183656 21 330 3.2 12.9 0.00 0.00 0.00 34 1044.5
20260503183154 21 17 8.0 11.3 0.00 0.00 0.00 34 1044.5
20260503182652 21 278 12.9 17.7 0.00 0.00 0.00 36 1044.6
20260503182150 21 334 9.7 14.5 0.00 0.00 0.00 34 1044.7
20260503181646 21 318 6.4 14.5 0.00 0.00 0.00 36 1044.5
20260503181144 20 304 3.2 9.7 0.00 0.00 0.00 37 1044.6
20260503180640 20 258 6.4 9.7 0.00 0.00 0.00 39 1044.5
20260503180138 21 349 3.2 11.3 0.00 0.00 0.00 37 1044.8
20260503175635 20 189 6.4 12.9 0.00 0.00 0.00 40 1044.8
20260503175132 20 336 8.0 17.7 0.00 0.00 0.00 37 1044.8
20260503174629 20 310 6.4 9.7 0.00 0.00 0.00 39 1044.8
20260503174126 20 347 6.4 11.3 0.00 0.00 0.00 40 1044.6
20260503173621 20 331 8.0 11.3 0.00 0.00 0.00 41 1044.9
20260503173117 20 348 6.4 11.3 0.00 0.00 0.00 39 1044.7
20260503172614 20 307 9.7 14.5 0.00 0.00 0.00 40 1044.7
20260503172112 20 349 4.8 11.3 0.00 0.00 0.00 40 1044.8
20260503171608 20 320 6.4 16.1 0.00 0.00 0.00 41 1044.8
20260503171106 20 266 6.4 9.7 0.00 0.00 0.00 42 1044.7
20260503170603 19 337 6.4 16.1 0.00 0.00 0.00 42 1044.7
20260503150954 16 325 6.4 9.7 0.00 0.00 0.00 50 1044.6
20260503150451 16 355 6.4 11.3 0.00 0.00 0.00 48 1044.4
20260503131343 12 256 8.0 12.9 0.00 0.00 0.00 53 1044.7
20260503130841 12 160 4.8 9.7 0.00 0.00 0.00 53 1044.9
20260503130338 12 234 11.3 17.7 0.00 0.00 0.00 54 1044.9
20260503110732 10 186 4.8 9.7 0.00 0.00 0.00 56 1045.0
20260503110229 10 240 4.8 16.1 0.00 0.00 0.00 55 1045.0
20260503100155 11 162 8.0 20.9 0.00 0.00 0.00 52 1045.3
20260503090114 12 193 8.0 12.9 0.00 0.00 0.00 54 1046.8
20260503081550 12 182 3.2 9.7 0.00 0.00 0.00 52 1048.0
20260503081048 12 211 6.4 16.1 0.00 0.00 0.00 48 1048.1
20260503080544 12 185 6.4 12.9 0.00 0.00 0.00 50 1048.1
20260503072517 12 159 4.8 9.7 0.00 0.00 0.00 46 1049.3
20260503072014 12 238 6.4 14.5 0.00 0.00 0.00 45 1049.3
20260503071511 12 215 6.4 11.3 0.00 0.00 0.00 45 1049.4
20260503071008 13 214 12.9 16.1 0.00 0.00 0.00 43 1049.2
20260503070504 13 206 6.4 12.9 0.00 0.00 0.00 42 1048.9